Tracking 30923 objects as of 1-Jul-2025
HD Live streaming from Space Station
objects crossing your sky now

BREEZE-M R/B

Track BREEZE-M R/B now!


NORAD ID: 32375
Int'l Code: 2007-058C
Perigee: 33,643.6 km
Apogee: 35,690.1 km
Inclination: 10.9 °
Period: 1,378.9 minutes
Semi major axis: 41037 km
RCS: 2.4245 m2 (large)
Launch date: December 9, 2007
Source: Commonwealth of Independent States (former USSR) (CIS)
Launch site: TYURATAM MISSILE AND SPACE COMPLEX (TTMTR)

Note: This is a ROCKET BODY
Your satellite tracking list
COSMOS 1988 (GLONASS)
Track 1 satellite(s)




NASA's NSSDC Master Catalog

Two Line Element Set (TLE):
1 32375U 07058C   25181.55267659 -.00000220  00000-0  00000-0 0  9997
2 32375  10.8527  28.1171 0249341 209.0423 163.4962  1.04430335 66802
Source of the keplerian elements: AFSPC